Regional Weather Roundup
Issued by NWS

Home | Current Version | Previous Version | Graphics & Text | Print | Product List | Glossary On
Versions: 1 2 3 4 5 6 7 8 9 10 11 12 13 14 15 16 17 18 19 20 21 22 23 24 25 26 27 28 29 30 31 32 33 34 35 36 37 38 39 40 41 42 43 44 45 46 47 48 49 50
000
ASUS43 KMKX 181221
RWRWI

WISCONSIN REGIONAL WEATHER ROUNDUP
NATIONAL WEATHER SERVICE MILWAUKEE/SULLIVAN WI
700 AM CDT THU SEP 18 2014

NOTE: "FAIR" INDICATES FEW OR NO CLOUDS BELOW 12,000 FEET WITH NO
SIGNIFICANT WEATHER AND/OR OBSTRUCTIONS TO VISIBILITY.

WIZ001-002-006>008-014>016-023>028-181300-
NORTHWEST WISCONSIN

CITY           SKY/WX    TMP DP  RH WIND       PRES   REMARKS
SUPERIOR ARPT  MOCLDY    42  38  86 SE6       30.16R
6HR MIN TEMP:  42; 6HR MAX TEMP:  44;

ASHLAND        CLOUDY    42  38  85 NE9       30.17S
6HR MIN TEMP:  42; 6HR MAX TEMP:  45;

HAYWARD        CLOUDY    45  43  93 E7        30.13S
6HR MIN TEMP:  44; 6HR MAX TEMP:  45;

SIREN          CLOUDY    45  43  91 E5        30.11S
6HR MIN TEMP:  45; 6HR MAX TEMP:  46;

RICE LAKE      FOG       47  46  95 NE3       30.13R VSB 1
6HR MIN TEMP:  44; 6HR MAX TEMP:  47;

LADYSMITH      CLOUDY    47  46  93 E7        30.14S
6HR MIN TEMP:  46; 6HR MAX TEMP:  48;

EAU CLAIRE     MOCLDY    48  45  89 SE12      30.10R
6HR MIN TEMP:  46; 6HR MAX TEMP:  51;

MENOMONIE      CLOUDY    50  49  95 E10       30.10R FOG
6HR MIN TEMP:  46; 6HR MAX TEMP:  51;

NEW RICHMOND   FOG       48  48 100 E6        30.09R VSB 3/4
6HR MIN TEMP:  45; 6HR MAX TEMP:  48;

OSCEOLA        CLOUDY    48  48 100 E3        30.12R
6HR MIN TEMP:  45; 6HR MAX TEMP:  49;

$$

WIZ003>005-009-010-017-018-181300-
NORTH CENTRAL WISCONSIN

CITY           SKY/WX    TMP DP  RH WIND       PRES   REMARKS
WOODRUFF       CLOUDY    42  39  89 E3        30.14S
6HR MIN TEMP:  42; 6HR MAX TEMP:  43;

RHINELANDER    CLOUDY    40  39  97 E7        30.16R
6HR MIN TEMP:  40; 6HR MAX TEMP:  45;

EAGLE RIVER    CLOUDY    37  36  96 E5        30.16R WCI  34
6HR MIN TEMP:  37; 6HR MAX TEMP:  41;

LAND O LAKES   CLOUDY    38  36  94 SE3       30.17R
6HR MIN TEMP:  37; 6HR MAX TEMP:  39;

PHILLIPS       CLOUDY    44  42  93 E6        30.13S
6HR MIN TEMP:  44; 6HR MAX TEMP:  46;

TOMAHAWK       CLOUDY    44  41  91 E5        30.15R
6HR MIN TEMP:  44; 6HR MAX TEMP:  46;

MEDFORD        CLOUDY    45  44  95 E7        30.13R
6HR MIN TEMP:  45; 6HR MAX TEMP:  49;

MERRILL        CLOUDY    44  42  93 SE8       30.15R
6HR MIN TEMP:  44; 6HR MAX TEMP:  50;

$$

WIZ029-030-035-036-043>047-181300-
CENTRAL WISCONSIN

CITY           SKY/WX    TMP DP  RH WIND       PRES   REMARKS
WAUSAU         CLOUDY    44  41  89 SE9       30.15R
6HR MIN TEMP:  44; 6HR MAX TEMP:  50;

MOSINEE        CLOUDY    43  43 100 E8        30.16R
MARSHFIELD     CLOUDY    45  42  89 E12       30.13S
6HR MIN TEMP:  45; 6HR MAX TEMP:  52;

STEVENS POINT  CLOUDY    42  40  91 E8        30.16R
6HR MIN TEMP:  42; 6HR MAX TEMP:  49;

WAUPACA        CLOUDY    46  44  90 E7        30.17R
6HR MIN TEMP:  46; 6HR MAX TEMP:  51;

WAUTOMA        CLOUDY    48  45  90 NE7       30.15R
6HR MIN TEMP:  48; 6HR MAX TEMP:  52;

WISC RAPIDS    CLOUDY    46  43  89 E9        30.16R
6HR MIN TEMP:  46; 6HR MAX TEMP:  52;

CAMP DOUGLAS   CLOUDY    49  49 100 E9        30.12S FOG
6HR MIN TEMP:  40; 6HR MAX TEMP:  51;

$$

WIZ011>013-019>022-031-037>040-048>050-181300-
NORTHEAST WISCONSIN

CITY           SKY/WX    TMP DP  RH WIND       PRES   REMARKS
ANTIGO         CLOUDY    39  38  96 E8        30.17R WCI  34
6HR MIN TEMP:  39; 6HR MAX TEMP:  45;

STURGEON BAY   MOCLDY    45  37  76 NE8       30.18S
6HR MIN TEMP:  43; 6HR MAX TEMP:  46;

GREEN BAY      CLOUDY    44  38  79 N9        30.18R
6HR MIN TEMP:  44; 6HR MAX TEMP:  50;

MANITOWOC      CLOUDY    46  42  86 N7        30.17R
6HR MIN TEMP:  46; 6HR MAX TEMP:  51;

APPLETON       CLOUDY    45  39  81 NE10      30.17R
CLINTONVILLE   CLOUDY    43  37  81 NE7       30.18R
OSHKOSH        CLOUDY    49  45  86 NE9       30.15R
6HR MIN TEMP:  49; 6HR MAX TEMP:  53;

$$

WIZ032>034-041-042-053>061-181300-
SOUTHWEST WISCONSIN

CITY           SKY/WX    TMP DP  RH WIND       PRES   REMARKS
LA CROSSE      CLOUDY    51  49  92 E3        30.10R
6HR MIN TEMP:  48; 6HR MAX TEMP:  53;

SPARTA         CLOUDY    50  49  98 E6        30.11R FOG
6HR MIN TEMP:  40; 6HR MAX TEMP:  50;

VIROQUA        CLOUDY    47  47 100 E7        30.10R VSB<1/4
6HR MIN TEMP:  47; 6HR MAX TEMP:  52;

BOSCOBEL       CLOUDY    51  49  92 NE6       30.12R FOG
6HR MIN TEMP:  48; 6HR MAX TEMP:  51;

PRAIRIE DU CHI FOG       47  46  96 CALM      30.09R VSB 1/2
6HR MIN TEMP:  47; 6HR MAX TEMP:  50;

PLATTEVILLE    FAIR      50  48  92 CALM      30.10R
6HR MIN TEMP:  47; 6HR MAX TEMP:  53;

$$

WIZ056-057-062-063-064-067-068-181300-
SOUTH CENTRAL WISCONSIN

CITY           SKY/WX    TMP DP  RH WIND       PRES   REMARKS
BARABOO/DELLS  FOG       50  49  95 E6        30.12R VSB 1/2
6HR MIN TEMP:  47; 6HR MAX TEMP:  50;

LONE ROCK      CLOUDY    54  50  86 E10       30.12R FOG
6HR MIN TEMP:  50; 6HR MAX TEMP:  54;

WATERTOWN      CLOUDY    49  49 100 NE6       30.13R
6HR MIN TEMP:  44; 6HR MAX TEMP:  50;

MADISON        FOG       50  48  93 E10       30.13R VSB 1
6HR MIN TEMP:  46; 6HR MAX TEMP:  51;

MIDDLETON      CLOUDY    52  52  99 NE6       30.12R VSB 1/2
6HR MIN TEMP:  46; 6HR MAX TEMP:  52;

MONROE         CLEAR     46  46 100 NE8       30.10R FOG
JANESVILLE     CLOUDY    50  48  93 E6        30.12R VSB 1/2
$$

WIZ051-052-058>065-066-070>072-181300-
SOUTHEAST WISCONSIN

CITY           SKY/WX    TMP DP  RH WIND       PRES   REMARKS
MILWAUKEE      CLOUDY    52  49  89 N9        30.13R
6HR MIN TEMP:  52; 6HR MAX TEMP:  56;

WAUKESHA       CLOUDY    48  46  93 NE12      30.14R
MILWAUKEE/TIMM CLOUDY    50  46  87 NE10      30.13R
RACINE         CLOUDY    54  51  90 N13       30.13R
6HR MIN TEMP:  51; 6HR MAX TEMP:  55;

BURLINGTON     CLOUDY    50  50 100 N3        30.12R
6HR MIN TEMP:  40; 6HR MAX TEMP:  50;

KENOSHA        CLOUDY    53  52  96 N5        30.11R
6HR MIN TEMP:  46; 6HR MAX TEMP:  53;

FOND DU LAC    CLOUDY    47  41  80 E9        30.16R
6HR MIN TEMP:  47; 6HR MAX TEMP:  53;

SHEBOYGAN      CLOUDY    47  42  83 N8        30.15R
6HR MIN TEMP:  47; 6HR MAX TEMP:  50;

WEST BEND      CLOUDY    46  43  87 NE7       30.14R
JUNEAU         CLOUDY    47  46  95 NE8       30.14R
6HR MIN TEMP:  47; 6HR MAX TEMP:  51;

$$

LSZ147-162-181300-
LAKE SUPERIOR

STATION/POSITION TIME  TEMP    WIND        PRES    WAVE
                       AIR SEA DIR/SP/G            HT/PER
                 (UTC) (F)     (DEG/KT/KT) (MB)    (FT/S)
W MID LAKE BUOY  1150   44 46  110/  6/  8 1022.8R   2/ 5
DEVILS ISLAND    1200   44     110/ 12/ 14 1022.6R
PORT WING        1140   43      60/  8/ 11 1021.7S
SAXON HARBOR     1140   43      80/  3/  5 1021.7F
$$

LMZ867-665-643>646-181300-
LAKE MICHIGAN

STATION/POSITION TIME  TEMP    WIND        PRES    WAVE
                       AIR SEA DIR/SP/G            HT/PER
                 (UTC) (F)     (DEG/KT/KT) (MB)    (FT/S)
N MID LAKE BUOY  1150   49 57   40/ 14/ 16 1021.9R   2/ 5
NORTHPORT PIER   1100   46      10/  9/ 13 1022.0R
SISTER BAY       1042          120/  4/  9   N/A
KEWAUNEE LAKESHO 1200   44     350/  5/  9 1020.6R
SHEBOYGAN LAKESH 1200   48 48  360/ 16/ 18 1021.4R
PORT WASHINGTON  1100   51     360/  7/ 11 1020.7
ATWATER BUOY     1200   53     360/ 17/ 23 1020.7R
MILWAUKEE LAKESH 1200   52     350/ 13/ 17   N/A
S MID LAKE BUOY  1150   61 64  340/  6/  8 1018.9R   0
KENOSHA   LAKESH 1200   54     350/ 10/ 12 1019.3R
$$

TC  - TEMPERATURE IN CELSIUS
VSB - VISIBILITY IN STATUTE MILES
WCI - WIND CHILL INDEX
HX  - HEAT INDEX



USA.gov is the U.S. government's official web portal to all federal, state and local government web resources and services.